Location: Arthez
(43.0833°N, 0.2500°W)
Time: 20:02:19
(UTC+00:00)

Lacrosse 4 Rocket - Pass Details

Date: 23 October 2021
Orbit: 537 x 619 km, 68.0° (Epoch: 06 December)

Event Time Altitude Azimuth Distance (km) Brightness Sun altitude
Rises 19:01:22 0° 328° (NNW) 2,817 5.5 -21.8°
Reaches altitude 10° 19:03:35 10° 325° (NW) 1,926 4.6 -22.2°
Maximum altitude 19:07:53 64° 244° (WSW) 670 1.8 -23.0°
Enters shadow 19:09:25 38° 178° (S) 934 2.3 -23.3°
